Location: Stara Lesna
(49.1528°N, 20.2911°E)
Time: 10:49:46
(UTC+02:00)

Cosmos 2227 Rocket - Pass Details

Date: 21 September 2019
Orbit: 837 x 847 km, 71.0° (Epoch: 20 October)

Event Time Altitude Azimuth Distance (km) Brightness Sun altitude
Rises 05:22:31 0° 332° (NNW) 3,419 5.2 -10.6°
Reaches altitude 10° 05:25:00 10° 334° (NNW) 2,480 4.5 -10.2°
Maximum altitude 05:30:42 73° 60° (ENE) 887 2.5 -9.3°
Drops below altitude 10° 05:36:22 10° 145° (SE) 2,465 5.0 -8.4°
Sets 05:38:48 0° 148° (SSE) 3,396 5.7 -8.0°
